SCP
0 0 0 0 0 0 0 0 0 0 0 0 0 0 0 0 0 0 0 0 0 0 0 0 0 0 0 0 0 0 0 0 0 0 0 0 0 0 0 0 0 0 0
0 0 0 0 0 0 0 0 0 0 0 0 0 0 0 0 0 0 0 0 0 0 0 0 0 0 0 0 0 0 0 0 0 0 0 0 0 0 0 0 0 0 0
0 0 0 0 0 0 0 0 0 0 0 0 0 0 0 0 0 0 0 0 0 0 0 0 0 0 0 0 0 0 0 0 0 0 0 0 0 0 0 0 0 0 0
0 0 0 0 0 0 0 0 0 0 0 0 0 0 0 0 0 0 0 0 0 0 0 0 0 0 0 0 0 0 0 0 0 0 0 0 0 0 0 0 0 0 0
0 0 0 0 0 0 0 0 0 0 0 0 0 0 0 0 0 0 0 0 0 0 0 0 0 0 0 0 0 0 0 0 0 0 0 0 0 0 0 0 0 0 0
0 0 0 0 0 0 0 0 0 0 0 0 0 0 0 0 0 0 0 0 0 0 0 0 0 0 0 0 0 0 0 0 0 0 0 0 0 0 0 0 0 0 0
0 0 0 0 0 0 0 0 0 0 0 0 0 0 0 0 0 0 0 0 0 0 0 0 0 0 0 0 0 0 0 0 0 0 0 0 0 0 0 0 0 0 0
0 0 0 0 0 0 0 0 0 0 0 0 0 0 0 0 0 0 0 0 0 0 0 0 0 0 0 0 0 0 0 0 0 0 0 0 0 0 0 0 0 0 0
0 0 0 0 0 0 0 0 0 0 0 0 0 0 0 0 0 0 0 0 0 0 0 0 0 0 0 0 0 0 0 0 0 0 0 0 0 0 0 0 0 0 0
0 0 0 0 0 0 0 0 0 0 0 0 0 0 0 0 0 0 0 0 0 0 0 0 0 0 0 0 0 0 0 0 0 0 0 0 0 0 0 0 0 0 0
0 0 0 0 0 0 0 0 0 0 0 0 0 0 0 0 0 0 0 0 0 0 0 0 0 0 0 0 0 0 0 0 0 0 0 0 0 0 0 0 0 0 0
0 0 0 0 0 0 0 0 0 0 0 0 0 0 0 0 0 0 0 0 0 0 0 0 0 0 0 0 0 0 0 0 0 0 0 0 0 0 0 0 0 0 0
0 0 0 0 0 0 0 0 0 0 0 0 0 0 0 0 0 0 0 0 0 0 0 0 0 0 0 0 0 0 0 0 0 0 0 0 0 0 0 0 0 0 0
0 0 0 0 0 0 0 0 0 0 0 0 0 0 0 0 0 0 0 0 0 0 0 0 0 0 0 0 0 0 0 0 0 0 0 0 0 0 0 0 0 0 0
0 0 0 0 0 0 0 0 0 0 0 0 0 0 0 0 0 0 0 0 0 0 0 0 0 0 0 0 0 0 0 0 0 0 0 0 0 0 0 0 0 0 0
0 0 0 0 0 0 0 0 0 0 0 0 0 0 0 0 0 0 0 0 0 0 0 0 0 0 0 0 0 0 0 0 0 0 0 0 0 0 0 0 0 0 0
0 0 0 0 0 0 0 0 0 0 0 0 0 0 0 0 0 0 0 0 0 0 0 0 0 0 0 0 0 0 0 0 0 0 0 0 0 0 0 0 0 0 0
0 0 0 0 0 0 0 0 0 0 0 0 0 0 0 0 0 0 0 0 0 0 0 0 0 0 0 0 0 0 0 0 0 0 0 0 0 0 0 0 0 0 0
0 0 0 0 0 0 0 0 0 0 0 0 0 0 0 0 0 0 0 0 0 0 0 0 0 0 0 0 0 0 0 0 0 0 0 0 0 0 0 0 0 0 0
0 0 0 0 0 0 0 0 0 0 0 0 0 0 0 0 0 0 0 0 0 0 0 0 0 0 0 0 0 0 0 0 0 0 0 0 0 0 0 0 0 0 0
0 0 0 0 0 0 0 0 0 0 0 0 0 0 0 0 0 0 0 0 0 0 0 0 0 0 0 0 0 0 0 0 0 0 0 0 0 0 0 0 0 0 0
0 0 0 0 0 0 0 0 0 0 0 0 0 0 0 0 0 0 0 0 0 0 0 0 0 0 0 0 0 0 0 0 0 0 0 0 0 0 0 0 0 0 0
0 0 0 0 0 0 0 0 0 0 0 0 0 0 0 0 0 0 0 0 0 0 0 0 0 0 0 0 0 0 0 0 0 0 0 0 0 0 0 0 0 0 0
0 0 0 0 0 0 0 0 0 0 0 0 0 0 0 0 0 0 0 0 0 0 0 0 0 0 0 0 0 0 0 0 0 0 0 0 0 0 0 0 0 0 0
0 0 0 0 0 0 0 0 0 0 0 0 0 0 0 0 0 0 0 0 0 0 0 0 0 0 0 0 0 0 0 0 0 0 0 0 0 0 0 0 0 0 0
0 0 0 0 0 0 0 0 0 0 0 0 0 0 0 0 0 0 0 0 0 0 0 0 0 0 0 0 0 0 0 0 0 0 0 0 0 0 0 0 0 0 0
Wind_Speed
3 3 3 3 4 3 3 3 3 5 5 6 6 6 7 7 6 6 5 11 12 11 12 12 12 11 11 10 10 10 9 9 10 10 9 9 9 9 9 9 8 8 8
3 3 3 3 3 3 3 3 4 4 4 4 5 6 6 6 6 6 6 7 11 12 12 12 12 12 11 11 10 9 9 9 9 9 9 9 9 9 8 8 8 8 8
4 3 3 3 3 3 3 3 4 3 3 4 5 5 5 6 5 6 6 5 6 9 11 12 11 11 11 10 10 10 9 9 9 9 9 8 8 8 8 8 7 7 7
4 3 3 4 4 3 3 3 2 3 3 3 3 4 4 4 5 6 5 5 5 5 8 10 10 10 10 10 10 9 8 8 8 8 8 8 7 7 7 7 7 7 6
4 3 3 3 4 3 3 3 3 2 3 3 3 3 3 3 4 4 5 6 6 5 5 7 8 9 9 9 9 9 8 7 6 7 7 7 7 7 7 7 7 7 7
3 3 2 3 4 3 3 3 3 3 3 2 2 3 3 3 3 4 4 5 5 6 5 5 4 5 7 7 7 7 8 7 6 6 6 6 6 6 6 6 6 6 6
3 3 2 2 2 2 3 3 3 3 3 2 1 2 2 3 3 3 3 3 4 5 4 4 3 3 3 6 5 6 6 6 6 5 5 6 6 6 6 6 5 5 5
2 2 2 2 2 2 3 3 2 2 2 2 2 1 0 2 2 2 2 2 3 3 3 4 4 4 3 3 6 5 5 5 5 4 5 5 5 5 5 5 6 5 5
2 2 2 2 2 2 2 2 2 2 1 1 2 2 2 2 1 1 1 1 2 2 2 2 3 3 3 3 3 4 5 4 3 3 3 3 3 4 4 5 5 5 4
1 2 1 1 1 1 1 1 1 1 1 1 1 2 3 3 2 1 1 1 1 1 1 1 2 2 3 2 3 6 6 5 3 2 2 1 2 2 3 3 4 4 4
1 1 1 1 0 0 1 1 1 1 0 1 1 1 1 1 3 2 1 1 1 1 1 1 1 1 2 2 2 4 5 5 4 2 1 1 1 1 2 2 3 4 4
0 1 1 1 1 1 1 1 1 1 1 1 1 1 1 1 2 2 2 2 2 1 1 1 1 1 1 1 2 4 3 3 4 3 2 2 2 1 1 2 3 3 2
0 0 1 1 1 1 1 1 1 1 1 1 1 1 1 2 2 2 2 2 2 2 1 1 0 1 1 1 1 2 1 2 3 3 3 2 2 2 2 1 2 2 1
1 1 1 1 1 1 1 1 2 1 2 2 2 2 2 2 2 2 2 3 3 2 2 1 0 0 1 1 1 3 1 1 1 2 2 1 1 1 1 1 1 2 1
2 2 2 1 1 2 2 2 2 2 2 2 2 3 2 2 2 2 2 3 3 3 3 2 1 1 1 1 1 3 2 1 1 2 2 2 2 1 1 2 2 2 1
2 2 2 2 2 2 2 2 2 2 3 2 2 3 3 2 2 2 2 3 3 4 4 2 2 2 2 2 2 3 2 2 3 2 2 2 2 2 2 2 2 3 2
2 2 2 2 2 2 3 2 3 3 3 3 3 3 3 3 2 2 2 3 3 3 4 3 3 2 2 2 2 3 2 3 2 3 3 3 3 3 2 2 3 3 3
2 2 2 2 2 3 3 3 3 3 3 3 4 4 4 3 3 3 3 4 3 4 4 4 3 3 3 3 3 3 3 2 2 2 3 4 4 4 3 3 3 4 3
2 2 2 2 2 3 3 3 3 4 4 4 4 4 4 3 3 3 3 4 3 3 3 4 4 2 3 2 3 3 3 2 3 1 3 4 4 5 5 4 4 3 3
3 2 2 2 2 3 3 3 3 4 4 4 3 4 4 4 4 4 3 4 4 4 4 4 3 3 3 3 3 3 3 2 3 2 2 2 3 5 6 5 4 3 3
3 3 3 2 2 3 3 4 4 4 4 4 3 3 3 3 4 4 4 4 4 3 3 3 4 3 3 3 3 3 4 3 3 2 2 3 3 3 4 5 5 4 4
3 3 3 3 3 2 3 4 5 5 4 4 3 3 3 3 3 4 5 5 5 4 4 4 4 5 5 4 4 4 4 4 3 2 3 4 3 3 3 3 2 3 4
3 3 3 3 4 2 1 3 4 6 5 4 4 4 3 3 4 4 4 6 6 6 6 6 6 6 5 5 5 6 5 5 5 3 3 4 3 4 3 2 2 3 4
3 3 3 3 3 2 1 3 4 6 5 4 4 4 4 4 3 4 5 5 5 5 5 6 6 7 6 5 5 6 6 6 5 3 3 5 4 4 3 3 3 3 3
3 3 3 4 4 3 1 2 5 5 4 5 4 4 4 4 3 4 5 5 5 4 4 5 6 7 7 6 5 4 4 4 4 4 3 4 4 4 4 4 2 4 4
3 3 3 4 4 4 1 2 5 4 4 4 4 4 3 3 3 4 5 5 6 5 5 4 5 5 6 5 5 6 5 5 4 4 3 4 3 3 4 3 3 3 4
Wind_Direction
52 55 59 51 48 48 59 56 51 53 53 54 54 53 52 51 50 52 60 54 50 55 63 68 69 71 72 73 73 73 71 69 67 67 69 70 71 70 68 66 66 66 68
52 48 55 54 50 44 44 51 57 53 52 52 53 53 48 50 51 56 59 66 59 58 61 64 68 69 70 70 70 72 72 69 66 66 66 66 68 69 70 68 67 66 66
52 49 40 47 45 45 53 50 59 52 55 56 56 52 48 45 48 54 55 54 62 65 63 61 64 68 69 69 68 67 70 70 68 66 64 64 66 68 68 68 67 65 64
48 51 44 43 41 40 44 49 48 52 55 50 52 51 54 51 51 53 57 57 52 56 72 62 57 61 64 65 67 68 69 69 68 66 65 65 66 66 66 65 63 62 64
45 53 45 43 48 43 40 38 47 44 50 45 49 50 50 53 53 53 56 55 56 53 62 73 61 56 58 59 61 62 62 64 67 68 66 64 64 65 66 65 63 60 65
41 55 55 50 54 56 48 42 48 50 46 37 51 56 55 57 59 52 51 55 53 54 55 58 63 68 61 54 55 59 59 57 62 68 67 65 65 64 66 67 64 61 64
49 56 47 54 48 55 52 51 53 60 54 28 41 70 89 71 56 62 51 46 56 54 55 56 48 48 66 62 54 55 55 55 57 62 65 66 66 62 60 62 62 61 64
48 40 32 52 59 56 58 59 59 34 54 31 351 335 56 134 89 77 59 45 44 53 46 44 42 43 36 48 58 49 45 47 52 60 67 72 68 61 56 55 55 56 59
44 28 17 27 43 50 56 55 51 36 26 41 11 345 336 6 7 108 70 65 42 33 36 32 31 39 35 33 46 56 35 28 39 53 64 75 78 65 56 49 45 46 51
40 21 11 20 42 43 53 47 51 39 17 19 31 352 350 357 312 319 151 67 15 358 6 7 9 24 28 32 36 38 28 12 4 20 46 68 89 74 57 45 43 42 43
39 22 356 355 349 2 5 12 360 344 5 354 358 349 347 326 310 303 301 315 305 305 329 327 338 356 10 22 15 36 20 8 3 339 332 358 36 68 61 50 47 44 39
63 35 344 336 319 324 312 304 285 274 293 317 322 340 335 318 323 304 292 295 303 310 286 298 289 322 321 351 24 29 7 0 2 358 331 333 340 344 23 48 41 33 35
216 325 290 311 316 312 305 279 253 259 257 267 289 303 303 308 313 307 298 302 301 288 250 233 282 316 317 322 26 3 26 10 359 360 4 0 357 4 13 20 20 14 26
283 276 242 266 280 269 269 267 273 266 272 265 277 285 288 292 293 295 295 298 288 274 252 283 314 292 334 310 17 276 185 122 335 325 328 337 342 337 349 341 332 339 339
292 293 265 255 259 251 256 257 268 274 276 279 284 279 274 281 277 275 276 274 277 282 279 277 284 297 306 312 323 271 266 146 242 266 273 269 274 299 330 318 307 301 292
290 285 279 267 269 260 251 254 267 278 272 264 274 280 281 275 272 263 260 266 268 271 278 292 298 287 300 296 294 284 291 191 208 221 242 249 247 246 270 291 300 299 287
264 269 275 276 267 258 250 247 260 265 267 265 262 268 272 276 270 261 259 262 267 265 272 287 289 288 281 289 287 287 288 260 218 198 230 245 243 248 258 275 282 280 270
255 261 268 270 278 272 265 258 258 261 263 266 272 274 276 275 268 267 263 262 265 267 268 283 287 284 280 290 289 281 277 273 273 185 220 236 242 251 254 255 268 264 251
255 256 270 276 282 288 281 275 265 263 262 267 272 275 278 279 273 279 270 268 269 271 268 266 279 287 277 286 285 281 277 285 279 243 227 231 234 243 245 240 250 260 241
253 258 268 270 279 284 281 283 273 266 265 267 270 272 274 272 277 281 274 272 273 271 270 267 271 272 277 280 273 278 276 270 270 260 275 264 234 230 232 230 234 246 237
253 256 260 268 282 284 308 303 283 271 265 267 267 269 272 282 293 289 290 285 278 272 274 273 269 271 271 271 271 274 277 279 271 261 270 259 243 238 223 220 222 234 237
249 254 259 268 276 289 346 323 296 276 271 265 267 270 268 264 274 265 270 274 275 269 274 275 268 268 269 269 276 274 277 273 270 263 272 269 256 254 250 236 207 219 234
253 258 263 265 268 285 328 298 292 277 273 270 270 272 275 282 279 275 263 249 247 253 261 273 279 279 281 279 274 270 266 264 271 280 273 267 257 257 258 251 177 199 232
258 257 264 265 270 278 286 284 287 265 266 267 268 271 273 279 292 297 284 274 269 260 257 261 273 283 291 293 279 271 273 275 276 263 257 264 262 263 263 238 197 209 225
267 262 260 263 269 268 281 288 286 268 264 265 267 273 279 279 315 304 280 274 274 272 252 256 273 279 289 290 282 274 262 259 266 259 247 260 264 271 262 245 210 203 229
271 275 273 272 271 276 300 281 279 273 273 272 269 263 264 288 302 291 278 276 276 283 286 276 271 268 266 255 239 250 254 255 263 264 245 254 257 267 263 249 241 224 231